Weather reports worldwide

Advertisment
Bonn-Roleber, Germany (10519): temperature & dewpoint: 18.06.2018 16:00:00 - 24.06.2018 16:00:00 (CEST)Bonn-Roleber, Germany (10519): temperature 5cm & temperature -5cm: 18.06.2018 16:00:00 - 24.06.2018 16:00:00 (CEST)Bonn-Roleber, Germany (10519): temperature -20cm & temperature -100cm: 18.06.2018 16:00:00 - 24.06.2018 16:00:00 (CEST)Bonn-Roleber, Germany (10519): wind speed & gusts: 18.06.2018 16:00:00 - 24.06.2018 16:00:00 (CEST)Bonn-Roleber, Germany (10519): wind direction: 18.06.2018 16:00:00 - 24.06.2018 16:00:00 (CEST)Bonn-Roleber, Germany (10519): reduced air pressure: 18.06.2018 16:00:00 - 24.06.2018 16:00:00 (CEST)Bonn-Roleber, Germany (10519): visibility: 18.06.2018 16:00:00 - 24.06.2018 16:00:00 (CEST)Bonn-Roleber, Germany (10519): sunshine duration: 18.06.2018 16:00:00 - 24.06.2018 16:00:00 (CEST)Bonn-Roleber, Germany (10519): precipitation: 18.06.2018 16:00:00 - 24.06.2018 16:00:00 (CEST)
Date & Time tt [°C] td [°C] tt 5cm [°C] tt -5cm [°C] tt -20cm [°C] tt -100cm [°C] ff [km/h] ff [kn] fx [km/h] fx [kn] dd ppp [hPa] vv [km] sd [min] rr [mm]
24.06.2018 16:00:00 17,9 7,0 22,7 23,5 18,8 17,1 12 7 26 14 NNW 1022,2 50 6 0,0
24.06.2018 15:00:00 18,0 8,3 22,4 23,9 18,4 17,1 11 6 27 15 NW 1022,4 46 31 0,0
24.06.2018 14:00:00 17,6 8,4 24,6 23,1 18,0 17,1 11 6 25 14 NNW 1022,8 21 42 0,0
24.06.2018 13:00:00 16,7 8,6 21,7 21,2 17,7 17,1 13 7 22 12 NNW 1022,9 20 12 0,0
24.06.2018 12:00:00 16,2 9,9 19,3 20,2 17,4 17,1 11 6 21 11 NW 1023,1 14 4 0,0
24.06.2018 11:00:00 15,9 10,0 20,1 19,8 17,1 17,1 11 6 17 9 N 1022,9 13 11 0,0
24.06.2018 10:00:00 15,1 10,6 20,1 18,6 16,9 17,1 9 5 14 8 NW 1023,0 9 29 0,0
24.06.2018 09:00:00 14,1 10,3 16,0 16,7 16,8 17,1 10 6 16 9 WNW 1022,9 10 4 0,0
24.06.2018 08:00:00 13,4 10,4 14,3 15,6 16,8 17,1 6 3 16 8 W 1022,9 11 6 0,0
24.06.2018 07:00:00 12,1 10,4 11,8 14,8 16,9 17,1 6 4 11 6 SSW 1022,6 11 0 0,0
24.06.2018 06:00:00 11,5 9,6 9,8 14,8 17,1 17,1 3 1 10 5 W 1022,7 11 0 0,0
24.06.2018 05:00:00 12,3 9,5 11,9 15,0 17,2 17,1 6 3 13 7 SW 1022,4 21 0 0,0
24.06.2018 04:00:00 12,3 9,2 11,5 15,0 17,3 17,1 5 3 8 4 SW 1023,0 24 0 0,0
24.06.2018 03:00:00 12,4 9,2 10,8 15,2 17,5 17,1 3 2 10 5 WSW 1023,5 19 0 0,0
24.06.2018 02:00:00 12,3 9,3 11,2 15,3 17,7 17,1 4 2 7 4 SSW 1023,9 20 0 0,0
24.06.2018 01:00:00 12,1 9,4 10,5 15,5 17,9 17,1 3 1 5 3 SW 1024,4 19 0 0,0
24.06.2018 00:00:00 12,3 9,5 10,4 15,8 18,1 17,2 3 2 5 3 WSW 1024,6 25 0 0,0
23.06.2018 23:00:00 12,8 9,1 9,7 16,2 18,3 17,2 3 2 11 6 WSW 1024,8 31 0 0,0
23.06.2018 22:00:00 13,6 9,2 11,3 17,2 18,4 17,2 5 3 15 8 W 1024,6 38 0 0,0
23.06.2018 21:00:00 15,4 9,2 15,3 18,3 18,5 17,2 5 3 12 7 WNW 1024,4 41 8 0,0
23.06.2018 20:00:00 15,9 8,7 16,0 19,1 18,5 17,2 10 5 21 11 WNW 1024,6 45 13 0,0
23.06.2018 19:00:00 15,3 9,2 16,2 19,5 18,4 17,2 5 3 21 11 WNW 1025,2 30 0 0,0
23.06.2018 18:00:00 15,5 9,1 18,0 20,9 18,2 17,2 10 5 22 12 W 1025,8 32 19 0,0
23.06.2018 17:00:00 15,0 9,0 17,7 20,3 18,0 17,2 9 5 27 14 WNW 1026,2 32 1 0,0
23.06.2018 16:00:00 14,6 8,5 16,8 19,7 17,8 17,2 14 8 32 17 NW 1026,5 52 1 0,0
23.06.2018 15:00:00 15,8 9,5 19,8 19,5 17,6 17,2 12 7 31 17 WNW 1026,7 45 3 0,0
23.06.2018 14:00:00 14,2 8,2 15,8 18,6 17,5 17,2 13 7 28 15 NNW 1027,2 35 0 0,0
23.06.2018 13:00:00 14,0 8,1 17,2 19,2 17,2 17,2 7 4 21 11 WNW 1027,4 25 16 0,0
23.06.2018 12:00:00 13,3 8,9 18,8 18,3 17,0 17,2 10 6 27 15 WNW 1027,6 20 12 0,0
23.06.2018 11:00:00 11,9 7,8 13,9 17,1 16,9 17,2 12 6 25 13 WNW 1027,8 20 0 0,0
23.06.2018 10:00:00 11,8 7,7 14,3 16,6 16,8 17,2 14 8 27 15 WNW 1027,8 23 2 0,0
23.06.2018 09:00:00 11,5 7,3 13,4 16,1 16,7 17,2 12 7 26 14 WNW 1027,6 19 38 0,0
23.06.2018 08:00:00 10,4 7,1 12,0 14,2 16,8 17,2 11 6 19 11 WNW 1027,8 17 50 0,0
23.06.2018 07:00:00 9,5 7,0 9,7 13,7 17,0 17,2 10 5 18 10 WNW 1027,8 17 36 0,0
23.06.2018 06:00:00 8,4 6,8 7,5 13,7 17,2 17,2 8 4 17 9 WNW 1027,8 13 0 0,0
23.06.2018 05:00:00 9,4 7,2 9,2 14,1 17,4 17,2 9 5 22 12 WNW 1027,4 16 0 0,0
23.06.2018 04:00:00 9,2 7,1 8,0 14,2 17,6 17,2 8 4 18 10 W 1027,6 17 0 0,0
23.06.2018 03:00:00 10,2 7,4 10,0 14,9 17,8 17,2 8 4 19 10 WNW 1027,7 21 0 0,0
23.06.2018 02:00:00 10,9 7,5 10,6 15,1 17,9 17,2 6 3 22 12 W 1027,6 24 0 0,0
23.06.2018 01:00:00 11,2 7,5 10,4 15,3 18,2 17,2 10 5 23 12 WNW 1027,8 23 0 0,0
23.06.2018 00:00:00 11,7 7,7 11,0 15,5 18,4 17,2 7 4 27 14 W 1027,7 29 0 0,0
22.06.2018 23:00:00 12,1 7,3 10,8 16,0 18,6 17,2 10 6 24 13 WNW 1027,3 51 0 0,0
22.06.2018 22:00:00 13,2 7,2 12,0 16,9 18,7 17,2 11 6 26 14 NW 1026,8 51 0 0,0
22.06.2018 21:00:00 13,8 7,0 13,0 18,2 18,8 17,2 13 7 33 18 WNW 1026,4 46 38 0,0
22.06.2018 20:00:00 15,0 7,1 15,7 18,9 18,8 17,2 16 8 34 19 WNW 1026,0 51 7 0,0
22.06.2018 19:00:00 15,5 7,0 16,8 20,0 18,6 17,2 20 11 35 19 WNW 1025,8 63 30 0,0
22.06.2018 18:00:00 15,7 6,7 17,8 20,1 18,4 17,2 16 8 42 23 WNW 1025,7 48 28 0,0
22.06.2018 17:00:00 15,3 7,1 17,8 19,9 18,3 17,2 16 8 30 16 WNW 1025,8 48 24 0,0
22.06.2018 16:00:00 14,2 6,5 15,2 18,9 18,1 17,2 16 9 34 18 NW 1025,8 40 13 0,0
22.06.2018 15:00:00 14,2 7,3 16,5 18,1 18,0 17,2 14 8 34 18 NW 1025,7 38 3 0,0
22.06.2018 14:00:00 14,5 6,3 17,6 18,1 17,9 17,2 12 7 34 18 WNW 1025,5 35 5 0,0
22.06.2018 13:00:00 12,8 6,0 13,7 16,8 17,9 17,2 14 7 39 21 NW 1025,6 30 0 0,0
22.06.2018 12:00:00 12,7 6,0 13,4 16,4 17,9 17,2 14 8 40 22 NW 1025,5 36 0 0,0
22.06.2018 11:00:00 12,4 6,0 13,0 16,3 17,9 17,2 23 13 48 26 WNW 1025,0 39 0 0,0
22.06.2018 10:00:00 12,0 6,0 12,7 16,0 18,0 17,2 21 11 49 26 WNW 1024,9 41 0 0,0
22.06.2018 09:00:00 11,5 6,3 12,3 15,6 18,1 17,2 16 8 40 22 WNW 1024,6 49 0 0,0
22.06.2018 08:00:00 10,9 6,1 11,5 15,2 18,2 17,2 16 8 39 21 WNW 1024,5 48 33 0,0
22.06.2018 07:00:00 10,4 5,4 10,8 14,7 18,5 17,2 16 9 33 18 W 1024,1 48 51 0,0
22.06.2018 06:00:00 9,5 5,4 8,4 14,9 18,7 17,2 11 6 32 17 W 1024,4 45 0 0,0
22.06.2018 05:00:00 10,0 5,2 9,8 15,2 18,9 17,2 14 7 25 14 W 1024,6 46 0 0,0
22.06.2018 04:00:00 9,9 5,1 9,8 15,3 19,2 17,1 13 7 34 18 W 1024,6 46 0 0,0
22.06.2018 03:00:00 9,6 5,4 9,3 15,2 19,6 17,1 11 6 27 15 W 1024,8 42 0 0,0
22.06.2018 02:00:00 9,7 5,6 8,3 15,7 19,9 17,1 10 6 27 14 WNW 1025,0 36 0 0,0
22.06.2018 01:00:00 10,5 5,1 9,0 16,3 20,3 17,1 11 6 33 18 NW 1025,0 45 0 0,0
22.06.2018 00:00:00 11,5 5,2 10,2 17,1 20,6 17,1 14 8 32 18 NW 1024,7 50 0 0,0
21.06.2018 23:00:00 12,1 5,7 10,8 18,0 21,0 17,1 10 6 39 21 NW 1024,3 50 0 0,0
21.06.2018 22:00:00 13,3 5,1 12,4 19,1 21,3 17,1 16 9 35 19 WNW 1023,6 54 5 0,0
21.06.2018 21:00:00 14,0 4,9 13,9 20,2 21,5 17,1 12 7 36 19 WNW 1023,1 62 26 0,0
21.06.2018 20:00:00 14,7 3,8 14,7 21,3 21,7 17,1 19 10 42 23 WNW 1022,7 70 7 0,0
21.06.2018 19:00:00 15,3 3,9 16,4 23,2 21,7 17,1 16 9 40 21 NW 1022,2 61 28 0,0
21.06.2018 18:00:00 16,4 3,0 19,2 24,8 21,6 17,1 20 11 49 27 NW 1021,5 50 58 0,0
21.06.2018 17:00:00 17,9 4,2 22,6 24,9 21,4 17,1 22 12 45 25 NW 1020,6 25 39 0,0
21.06.2018 16:00:00 17,5 4,4 21,4 25,9 21,1 17,1 19 11 46 25 NW 1020,2 44 49 0,0
21.06.2018 15:00:00 18,8 4,8 24,1 24,9 20,8 17,0 20 11 50 27 WNW 1019,4 28 39 0,0
21.06.2018 14:00:00 18,2 5,3 21,4 24,6 20,5 17,0 23 12 48 26 W 1019,0 24 47 0,0
21.06.2018 13:00:00 18,9 9,2 24,4 22,7 20,3 17,0 21 12 49 26 WNW 1018,3 25 35 0,0
21.06.2018 12:00:00 17,2 10,4 18,9 20,5 20,3 17,0 20 11 52 28 WNW 1018,0 30 4 0,0
21.06.2018 11:00:00 17,3 13,9 17,4 19,9 20,4 17,0 12 6 37 20 W 1017,1 11 1 0,1
21.06.2018 10:00:00 16,9 13,7 17,7 19,9 20,5 17,0 17 9 43 23 WNW 1016,4 13 0 0,0
21.06.2018 09:00:00 17,6 13,9 17,9 19,9 20,5 17,0 17 9 44 24 WNW 1015,6 11 3 0,0
21.06.2018 08:00:00 18,3 13,5 19,1 19,7 20,7 17,0 9 5 22 12 WNW 1015,5 35 36 0,0
21.06.2018 07:00:00 18,6 13,2 18,8 19,0 20,9 17,0 6 3 21 11 WSW 1015,4 36 60 0,0
21.06.2018 06:00:00 17,7 13,5 15,8 18,7 21,2 17,0 6 4 17 9 WSW 1015,4 29 3 0,0
21.06.2018 05:00:00 17,9 13,8 14,7 19,3 21,5 17,0 5 3 13 7 WSW 1015,8 29 0 0,0
21.06.2018 04:00:00 18,4 13,9 15,6 19,9 21,7 17,0 5 3 20 11 W 1016,4 35 0 0,0
21.06.2018 03:00:00 19,6 14,2 18,8 20,4 22,0 17,0 7 4 13 7 W 1016,9 50 0 0,0
21.06.2018 02:00:00 19,3 14,4 15,6 20,6 22,4 17,0 3 2 11 6 WNW 1016,9 40 0 0,0
21.06.2018 01:00:00 20,0 14,1 16,5 21,4 22,7 17,0 3 2 9 5 W 1017,2 64 0 0,0
21.06.2018 00:00:00 20,0 14,7 17,5 22,2 23,0 17,0 4 2 6 4 SW 1017,5 60 0 0,0
20.06.2018 23:00:00 20,5 13,2 17,3 23,0 23,4 17,0 4 2 10 5 W 1017,8 68 0 0,0
20.06.2018 22:00:00 22,0 13,7 18,4 24,3 23,6 17,0 5 3 11 6 WNW 1017,5 70 28 0,0
20.06.2018 21:00:00 24,6 13,4 22,0 26,1 23,7 17,0 5 3 15 8 NW 1017,2 70 60 0,0
20.06.2018 20:00:00 26,7 14,2 27,7 28,2 23,7 17,0 5 3 20 11 NW 1017,3 70 60 0,0
20.06.2018 19:00:00 27,1 14,4 30,0 29,5 23,5 17,0 9 5 21 11 WNW 1017,7 67 55 0,0
20.06.2018 18:00:00 27,2 13,7 30,5 30,5 23,2 17,0 8 4 17 9 NW 1018,1 70 53 0,0
20.06.2018 17:00:00 26,5 14,0 29,4 30,3 22,8 17,0 4 2 11 6 ENE 1018,7 70 31 0,0
20.06.2018 16:00:00 27,5 13,5 35,7 31,2 22,2 17,0 6 3 16 8 NW 1019,1 63 42 0,0
20.06.2018 15:00:00 26,8 14,7 34,7 31,2 21,6 17,0 9 5 14 8 S 1019,6 52 50 0,0
20.06.2018 14:00:00 25,9 15,4 31,8 30,7 20,9 17,0 6 4 18 10 SSW 1020,3 49 55 0,0
20.06.2018 13:00:00 24,4 15,0 28,2 28,1 20,2 17,0 4 2 17 9 E 1021,1 60 47 0,0
20.06.2018 12:00:00 23,6 15,5 28,7 26,8 19,6 17,0 11 6 21 12 S 1021,6 41 50 0,0
20.06.2018 11:00:00 23,7 15,5 28,3 24,6 19,2 17,0 11 6 23 12 S 1021,9 35 54 0,0
20.06.2018 10:00:00 21,9 15,7 25,7 21,8 18,9 17,0 10 5 19 10 S 1022,2 22 27 0,0
20.06.2018 09:00:00 20,3 15,9 22,1 20,6 18,8 17,0 10 5 18 10 SSW 1022,4 16 12 0,0
20.06.2018 08:00:00 19,4 16,2 20,3 19,2 18,8 17,0 4 2 12 6 S 1022,6 26 1 0,0
20.06.2018 07:00:00 18,2 16,0 18,3 18,5 18,9 17,0 2 1 10 5 SW 1022,8 21 0 0,0
20.06.2018 06:00:00 17,7 15,7 17,3 18,3 18,9 17,0 6 3 8 4 S 1022,9 18 0 0,0
20.06.2018 05:00:00 17,5 15,8 17,1 18,4 19,0 17,0 2 1 5 3 WSW 1023,2 19 0 0,0
20.06.2018 04:00:00 17,9 15,5 17,2 18,5 19,1 17,0 4 2 5 3 SSW 1023,5 8 0 0,0
20.06.2018 03:00:00 18,2 15,6 17,3 18,6 19,2 17,0 4 2 5 3 SSW 1023,8 23 0 0,0
20.06.2018 02:00:00 17,9 15,7 17,4 18,8 19,3 17,0 3 2 5 3 W 1024,1 26 0 0,0
20.06.2018 01:00:00 17,8 15,6 17,4 19,0 19,4 17,0 2 1 5 3 WSW 1024,2 20 0 0,0
20.06.2018 00:00:00 18,0 15,8 17,5 19,2 19,5 17,0 2 1 3 2 SSE 1024,3 18 0 0,0
19.06.2018 23:00:00 18,1 16,1 17,6 19,5 19,6 17,0 2 1 4 2 SSE 1024,4 22 0 0,0
19.06.2018 22:00:00 19,0 16,1 18,1 20,1 19,7 17,0 3 2 8 4 E 1024,1 29 0 0,0
19.06.2018 21:00:00 19,9 15,2 19,8 20,9 19,7 17,0 4 2 7 4 ENE 1023,9 36 0 0,0
19.06.2018 20:00:00 20,4 15,2 21,1 21,5 19,6 17,0 4 2 9 5 NNE 1024,1 42 0 0,0
19.06.2018 19:00:00 20,7 14,7 22,1 22,2 19,4 17,0 6 3 14 7 WNW 1024,1 40 0 0,0
19.06.2018 18:00:00 21,0 14,5 22,7 22,3 19,2 17,0 7 4 18 10 W 1024,3 47 0 0,0
19.06.2018 17:00:00 21,1 15,3 24,2 21,8 19,0 17,0 7 4 14 8 WNW 1024,3 46 0 0,0
19.06.2018 16:00:00 20,1 15,4 22,8 21,2 18,8 17,0 5 3 14 8 SSW 1024,6 42 0 0,0
19.06.2018 15:00:00 19,1 15,0 19,6 21,2 18,6 17,0 8 5 17 9 W 1024,7 11 0 0,0
19.06.2018 14:00:00 19,4 15,4 22,3 20,9 18,4 17,0 5 3 14 8 NNW 1024,6 16 2 0,0
19.06.2018 13:00:00 18,4 16,4 20,2 19,7 18,3 17,0 5 3 16 8 N 1024,7 - 0 0,0
19.06.2018 12:00:00 17,8 15,2 18,3 19,0 18,1 17,0 5 3 10 5 WNW 1024,5 17 0 0,0
19.06.2018 11:00:00 18,3 14,9 19,4 19,3 18,0 17,0 4 2 10 6 SW 1024,1 27 0 0,0
19.06.2018 10:00:00 18,0 14,7 19,3 18,6 17,8 17,0 5 3 11 6 SSW 1023,9 27 0 0,0
19.06.2018 09:00:00 16,7 14,2 17,4 17,4 17,8 17,0 6 3 9 5 SSW 1023,7 33 0 0,0
19.06.2018 08:00:00 15,9 13,5 15,9 16,6 17,9 17,0 4 2 9 5 SSW 1023,8 31 0 0,0
19.06.2018 07:00:00 15,6 13,5 15,1 15,7 18,1 17,0 3 2 11 6 WSW 1023,5 35 22 0,0
19.06.2018 06:00:00 14,2 12,7 11,7 15,3 18,3 17,0 3 1 12 6 WSW 1023,2 29 0 0,0
19.06.2018 05:00:00 14,8 12,9 12,3 15,7 18,6 17,1 8 4 16 8 SW 1022,6 31 0 0,0
19.06.2018 04:00:00 14,4 13,8 11,8 16,1 18,9 17,1 6 4 10 6 SW 1022,5 20 0 0,0
19.06.2018 03:00:00 15,3 13,7 12,3 16,7 19,1 17,1 3 2 11 6 SW 1022,5 22 0 0,0
19.06.2018 02:00:00 16,7 14,0 14,7 17,6 19,3 17,1 6 4 16 9 W 1022,4 32 0 0,0
19.06.2018 01:00:00 17,6 14,6 16,4 18,1 19,5 17,1 6 3 18 10 WNW 1022,0 38 0 0,0
19.06.2018 00:00:00 18,4 14,8 17,1 18,6 19,7 17,1 7 4 16 9 W 1021,9 43 0 0,0
18.06.2018 23:00:00 18,9 14,9 17,8 19,0 19,9 17,1 8 5 19 10 SW 1021,2 52 0 0,0
18.06.2018 22:00:00 19,4 14,9 17,8 19,7 20,0 17,1 10 5 17 9 SSW 1020,7 52 0 0,0
18.06.2018 21:00:00 20,4 15,0 19,7 20,7 20,1 17,1 9 5 17 9 SSW 1020,5 58 11 0,0
18.06.2018 20:00:00 20,8 14,9 20,2 21,4 20,0 17,1 7 4 18 10 SW 1020,5 57 18 0,0
18.06.2018 19:00:00 21,0 15,2 21,2 22,1 19,9 17,1 12 7 24 13 SSW 1020,4 59 21 0,0
18.06.2018 18:00:00 20,9 16,5 22,7 21,8 19,8 17,1 7 4 12 7 SSW 1020,9 44 2 0,0
18.06.2018 17:00:00 19,5 15,4 20,0 21,9 19,6 17,1 8 5 12 7 SSE 1021,2 43 0 0,0
18.06.2018 16:00:00 19,6 14,0 19,9 21,3 19,5 17,1 6 3 22 12 WNW 1021,5 41 0 0,0

tt = temperature
td = dewpoint
tt 5cm = temperature 5cm
tt -5cm = temperature -5cm
tt -20cm = temperature -20cm
tt -100cm = temperature -100cm
ff = wind speed
fx = gusts
dd = wind direction
ppp = reduced air pressure
vv = visibility
sd = sunshine duration
rr = precipitation

Next stations